Starlink 6298

operational
NORAD ID: 56391 Int'l Des: 2023-061 Owner: SPXS Country: US Constellation: starlink
LEOCIRCULAR

About Starlink 6298

Description loading...

Live Position

Loading 3D Globe...

Upcoming Passes

Altitude History

Altitude vs Time

uPlot chart will show altitude changes over time

Two-Line Element Set

1 56391U 23061T 25259.15166858 .00000409 00000-0 45348-4 0 9990
2 56391 43.0042 65.5016 0001288 290.9555 69.1150 15.02531913130507
Epoch: Sep 16, 2025 • Age: 12 hours

Current Status

Altitude 559.4 km
Velocity 7.59 km/s
Sub-Earth Point 22.39°N, 10.91°W
Launch Date May 4, 2023
Age 2.3 years
Type internet

Technical Details

Classification Payload
Mass 305.00 kg
Dry Mass 290.00 kg
Total Mass 305.00 kg
Length 0.20 m
Diameter 2.80 m
Span 9.00 m
Shape Box + pan
Manufacturer SPXS
Bus Type Starlink
Phase Status In Orbit
Owner/State SPXS/US

Large Constellations

Loading constellations...